Tracking 35274 objects as of 10-Sep-2026
HD Live streaming from Space Station
objects crossing your sky now

STARLINK-2098

Track STARLINK-2098 now!
10-day predictions
STARLINK-2098 is classified as:


NORAD ID: 47378
Int'l Code: 2021-005AF
Launch date: January 20, 2021
Source: United States (US)
Launch site: AIR FORCE EASTERN TEST RANGE (AFETR)
Your satellite tracking list
Your tracking list is empty




NASA's NSSDC Master Catalog

Two Line Element Set (TLE):
1 47378U 21005AF  26252.38647244  .00000733  00000-0  35380-4 0  9998
2 47378  53.1597 239.2996 0001044  80.9935 279.1185 15.31711360311864
Source of the keplerian elements: AFSPC